DW8923 Weather Reports


time (UTC)temp
F
wind
direction
speed
knots
gust
knots
rain 1hr
in
rain 24hr
in
rain mn
in
humidity
%
barometer
mb
20260508154529 67 130 0.9 2.6 0.00 0.02 0.02 83 1012.9
20260508153027 66 159 0.0 3.5 0.00 0.02 0.02 84 1012.9
20260508151527 66 115 1.7 3.5 0.00 0.02 0.02 84 1012.8
20260508150026 65 110 0.9 4.3 0.00 0.02 0.02 84 1012.9
20260508144521 65 101 0.9 3.5 0.00 0.02 0.02 86 1012.8
20260508143024 64 93 0.0 3.5 0.00 0.02 0.02 86 1012.8
20260508141515 64 112 0.0 2.6 0.00 0.02 0.02 87 1012.9
20260508140024 63 103 0.9 3.5 0.00 0.02 0.02 90 1012.9
20260508134515 61 360 0.0 0.9 0.00 0.02 0.02 92 1012.8
20260508133008 61 146 0.0 2.6 0.00 0.02 0.02 92 1013.2
20260508131505 60 134 0.0 0.9 0.00 0.02 0.02 92 1013.4
20260508130006 60 59 0.0 0.9 0.00 0.02 0.02 92 1013.1
20260508124509 59 112 0.0 0.0 0.00 0.02 0.02 92 1013.2
20260508123002 59 112 0.0 0.0 0.00 0.02 0.02 92 1013.3
20260508121601 59 115 0.0 0.0 0.00 0.02 0.02 92 1013.4
20260508120100 59 114 0.0 0.0 0.00 0.02 0.02 92 1013.5
20260508114559 59 355 0.0 0.0 0.00 0.02 0.02 92 1013.8
20260508113105 59 355 0.0 0.0 0.00 0.02 0.02 92 1014.0
20260508111559 59 355 0.0 0.0 0.00 0.02 0.02 92 1013.7
20260508110058 59 328 0.0 0.9 0.00 0.02 0.02 92 1013.6
20260508104601 59 312 0.0 1.7 0.01 0.02 0.02 91 1013.5
20260508103057 59 312 0.0 0.9 0.02 0.02 0.02 91 1014.0
20260508101559 60 302 0.0 0.9 0.02 0.02 0.02 91 1014.0
20260508100055 60 302 0.0 2.6 0.02 0.02 0.02 90 1014.3
20260508094612 60 321 0.0 2.6 0.01 0.01 0.01 89 1014.4
20260508093053 60 323 0.0 2.6 0.00 0.00 0.00 87 1014.6
20260508091548 60 270 0.0 1.7 0.00 0.00 0.00 88 1014.2
20260508090051 59 270 0.0 0.9 0.00 0.00 0.00 88 1014.0
20260508084544 59 270 0.0 0.9 0.00 0.00 0.00 89 1013.7
20260508083041 59 270 0.0 0.0 0.00 0.00 0.00 90 1014.0
20260508081559 58 270 0.0 0.0 0.00 0.00 0.00 91 1013.6
20260508080046 58 270 0.0 0.0 0.00 0.00 0.00 91 1013.5
20260508074538 58 270 0.0 0.0 0.00 0.00 0.00 91 1013.5
20260508073042 58 270 0.0 0.0 0.00 0.00 0.00 91 1013.6
20260508071542 57 270 0.0 0.0 0.00 0.00 0.00 91 1013.8
20260508070032 57 270 0.0 0.0 0.00 0.00 0.00 90 1014.2
20260508064532 57 270 0.0 0.0 0.00 0.00 0.00 90 1014.5
20260508063044 58 270 0.0 0.0 0.00 0.00 0.00 89 1014.7
20260508061529 58 270 0.0 0.0 0.00 0.00 0.00 89 1014.6
20260508060034 58 270 0.0 0.0 0.00 0.00 0.00 89 1014.6
20260508054529 58 270 0.0 0.9 0.00 0.00 0.00 89 1014.4
20260508053025 58 270 0.0 0.0 0.00 0.00 0.00 88 1014.4
20260508051525 58 270 0.0 0.0 0.00 0.00 0.00 88 1014.4
20260508050022 58 270 0.0 0.0 0.00 0.00 0.00 88 1014.7
20260508044528 59 270 0.0 0.0 0.00 0.00 0.00 88 1014.9
20260508043022 59 153 0.0 0.0 0.00 0.00 0.00 87 1014.8
20260508041521 59 153 0.0 0.9 0.00 0.00 0.00 86 1014.8
20260508040020 60 160 0.0 0.0 0.00 0.00 0.00 85 1015.2
20260508034520 60 160 0.0 1.7 0.00 0.00 0.00 85 1015.4
20260508033022 60 160 0.0 0.9 0.00 0.00 0.00 84 1015.5
20260508031518 60 264 0.9 1.7 0.00 0.00 0.00 84 1015.0
20260508030018 60 294 0.0 0.9 0.00 0.00 0.00 83 1014.8
20260508024531 61 72 0.0 1.7 0.00 0.00 0.00 83 1014.1
20260508023024 61 29 0.0 0.9 0.00 0.00 0.00 82 1013.7
20260508021517 61 29 0.0 1.7 0.00 0.00 0.00 81 1013.7
20260508020016 62 71 0.0 2.6 0.00 0.00 0.00 80 1013.5
20260508014515 62 77 0.0 1.7 0.00 0.00 0.00 80 1013.3
20260508013013 62 40 0.0 2.6 0.00 0.00 0.00 78 1013.6
20260508011515 63 22 0.9 2.6 0.00 0.00 0.00 77 1013.4
20260508010012 64 117 0.0 1.7 0.00 0.00 0.00 75 1013.8
20260508004509 64 317 0.0 2.6 0.00 0.00 0.00 73 1014.1
20260508003012 65 15 0.9 2.6 0.00 0.00 0.00 71 1014.3
20260508001506 65 28 0.9 3.5 0.00 0.00 0.00 70 1014.3
20260508000006 65 79 0.9 3.5 0.00 0.00 0.00 70 1014.7
20260507234512 66 302 0.9 3.5 0.00 0.00 0.00 70 1015.1
20260507233006 65 12 0.0 0.9 0.00 0.00 0.00 70 1015.2
20260507231503 65 82 0.9 3.5 0.00 0.00 0.00 70 1014.2
20260507230003 65 44 0.9 2.6 0.00 0.00 0.00 68 1014.8
20260507224502 65 22 0.9 3.5 0.00 0.00 0.00 68 1015.2
20260507223101 65 311 0.9 3.5 0.00 0.00 0.00 68 1015.4
20260507221601 65 350 0.9 4.3 0.00 0.00 0.00 67 1015.4
20260507220058 65 33 2.6 6.1 0.00 0.00 0.00 68 1015.2
20260507214607 65 311 0.0 4.3 0.00 0.00 0.00 69 1015.9
20260507213058 65 285 2.6 5.2 0.00 0.00 0.00 70 1016.1
20260507211601 65 11 0.9 5.2 0.00 0.00 0.00 71 1016.0
20260507204555 64 46 1.7 7.0 0.00 0.00 0.00 69 1016.1
20260507203105 64 54 1.7 7.0 0.00 0.00 0.00 70 1016.5
20260507201559 64 328 0.0 4.3 0.00 0.00 0.00 70 1016.8
20260507200105 64 322 1.7 7.0 0.00 0.00 0.00 71 1016.1
20260507194550 64 329 0.9 4.3 0.00 0.00 0.00 72 1016.9
20260507193050 64 310 0.0 4.3 0.00 0.00 0.00 71 1017.5
20260507191546 64 57 2.6 6.1 0.00 0.00 0.00 71 1017.0
20260507190048 63 14 0.9 5.2 0.00 0.00 0.00 74 1016.9
20260507184548 63 39 2.6 9.6 0.00 0.00 0.00 73 1016.7
20260507183047 63 32 2.6 5.2 0.00 0.00 0.00 73 1016.8
20260507181541 63 18 1.7 4.3 0.00 0.00 0.00 75 1016.9
20260507180046 62 57 1.7 7.0 0.00 0.00 0.00 75 1017.7
20260507174538 62 311 1.7 7.8 0.00 0.00 0.00 75 1017.9
20260507173036 61 39 3.5 8.7 0.00 0.00 0.00 77 1016.9
20260507171530 60 13 2.6 8.7 0.00 0.00 0.00 81 1017.8
20260507170036 60 342 1.7 5.2 0.00 0.00 0.00 82 1017.1
20260507164531 60 80 1.7 4.3 0.00 0.00 0.00 81 1017.2
20260507163029 60 287 2.6 5.2 0.00 0.00 0.00 81 1019.2
20260507161528 59 346 0.0 4.3 0.00 0.00 0.00 82 1019.0
20260507160028 59 349 1.7 4.3 0.00 0.00 0.00 83 1018.4